Regional Weather Roundup
Issued by NWS

Home | Current Version | Previous Version | Graphics & Text | Print | Product List | Glossary On
Versions: 1 2 3 4 5 6 7 8 9 10 11 12 13 14 15 16 17 18 19 20 21 22 23 24 25 26 27 28
000
ASUS45 KCYS 241710
RWRWY

WYOMING REGIONAL WEATHER ROUNDUP
NATIONAL WEATHER SERVICE CHEYENNE WY
1100 AM MDT SUN JUL 24 2016

NOTE:  "FAIR" INDICATES FEW OR NO CLOUDS BELOW 12,000 FEET
WITH NO SIGNIFICANT WEATHER AND/OR OBSTRUCTIONS TO VISIBILITY.

WYZ001-241800-
YELLOWSTONE NATIONAL PARK

CITY           SKY/WX    TMP DP  RH WIND       PRES   REMARKS
LK YELLOWSTONE   N/A     60  35  39 SE6       30.38F
W YELLOWSTONE  NOT AVBL

$$
WYZ002>013-054>058-071-098>099-241800-
NORTHERN WYOMING

CITY           SKY/WX    TMP DP  RH WIND       PRES   REMARKS
JACKSON        SUNNY     64  30  27 CALM      30.30F
CODY           FAIR      73  43  33 N7        30.20F
GREYBULL       FAIR      77  42  28 SE6       30.13F
WORLAND        FAIR      77  40  26 NW5       30.15F
SHERIDAN       FAIR      84  40  21 S15       30.12F
BUFFALO        FAIR      79  37  22 S21G29    30.20F
GILLETTE       FAIR      79  40  24 S9G18     30.18S
HULETT         FAIR      66  52  59 CALM      30.21R
NEWCASTLE      FAIR      77  36  22 SE8       30.19F

$$
WYZ014>020-022>026-101>103-241800-
CENTRAL WYOMING

CITY           SKY/WX    TMP DP  RH WIND       PRES   REMARKS
BIG PINEY      FAIR      71  30  21 S7        30.32F
PINEDALE       FAIR      72  23  16 SE3       30.34S
DUBOIS         FAIR      70  28  21 SE6       30.32S
LANDER         FAIR      74  38  27 VRB5      30.24F
RIVERTON       FAIR      75  39  27 VRB6      30.23F
CASPER         FAIR      72  42  34 VRB5      30.24S
DOUGLAS          N/A    N/A N/A N/A MISG      30.22S

$$
WYZ021-027>030-104>119-241800-
SOUTHERN WYOMING

CITY           SKY/WX    TMP DP  RH WIND       PRES   REMARKS
EVANSTON       FAIR      75  27  17 NE3       30.32S
KEMMERER         N/A     75  23  14 SW6       30.34R
FORT BRIDGER   SUNNY     75  23  14 SE5       30.34S
ROCK SPRINGS   FAIR      76  31  19 VRB3      30.30S
DIXON          FAIR      78  33  19 CALM      30.31S
RAWLINS        FAIR      79  23  12 NW9       30.30S
SARATOGA       FAIR      79  32  18 NW15      30.33R
LARAMIE        FAIR      76  33  21 CALM      30.31S
CHEYENNE       FAIR      79  51  37 S10       30.25R
TORRINGTON     FAIR      82  49  31 SE15G24   30.16R
PINE BLUFFS    FAIR      77  54  44 SE17      30.22R

$$




USA.gov is the U.S. government's official web portal to all federal, state and local government web resources and services.